Time,TemperatureF,DewpointF,PressureIn,WindDirection,WindDirectionDegrees,WindSpeedMPH,WindSpeedGustMPH,Humidity,HourlyPrecipIn,Conditions,Clouds,dailyrainin,SoftwareType,DateUTC
2013-05-16 00:00:00,63.2,45.2,29.81,North,0,1.8,1.8,52,0.00,,,0.00,WUHU216HW,2013-05-16 05:00:00,
2013-05-16 00:05:00,63.2,44.7,29.81,North,0,1.6,1.8,51,0.00,,,0.00,WUHU216HW,2013-05-16 05:05:00,
2013-05-16 00:06:00,63.2,44.7,29.81,North,0,1.6,1.8,51,0.00,,,0.00,WUHU216HW,2013-05-16 05:06:00,
2013-05-16 00:10:00,63.2,44.7,29.81,North,0,1.6,1.8,51,0.00,,,0.00,WUHU216HW,2013-05-16 05:10:00,
2013-05-16 00:30:00,61.6,44.2,29.81,SSW,203,1.3,1.3,53,0.00,,,0.00,WUHU216HW,2013-05-16 05:30:00,
2013-05-16 00:31:00,61.6,44.2,29.81,SSW,203,1.3,1.3,53,0.00,,,0.00,WUHU216HW,2013-05-16 05:31:00,
2013-05-16 00:35:00,61.6,44.2,29.81,SSW,203,1.3,1.3,53,0.00,,,0.00,WUHU216HW,2013-05-16 05:35:00,
2013-05-16 00:36:00,61.6,44.2,29.81,SSW,203,1.3,1.3,53,0.00,,,0.00,WUHU216HW,2013-05-16 05:36:00,
2013-05-16 00:40:00,61.6,44.2,29.81,SSW,203,1.3,1.3,53,0.00,,,0.00,WUHU216HW,2013-05-16 05:40:00,
2013-05-16 01:00:00,61.2,46.8,29.82,NNE,23,8.5,8.5,59,0.00,,,0.00,WUHU216HW,2013-05-16 06:00:00,
2013-05-16 01:05:00,61.2,46.4,29.82,NNW,338,11.0,11.0,58,0.00,,,0.00,WUHU216HW,2013-05-16 06:05:00,
2013-05-16 01:06:00,61.2,46.4,29.82,NNW,338,11.0,11.0,58,0.00,,,0.00,WUHU216HW,2013-05-16 06:06:00,
2013-05-16 01:10:00,61.2,46.4,29.82,NNW,338,11.0,11.0,58,0.00,,,0.00,WUHU216HW,2013-05-16 06:10:00,
2013-05-16 01:30:00,61.4,46.5,29.81,South,180,3.6,3.6,58,0.00,,,0.00,WUHU216HW,2013-05-16 06:30:00,
2013-05-16 01:35:00,61.4,46.5,29.81,South,180,3.8,3.8,58,0.00,,,0.00,WUHU216HW,2013-05-16 06:35:00,
2013-05-16 01:36:00,61.4,46.5,29.81,South,180,3.8,3.8,58,0.00,,,0.00,WUHU216HW,2013-05-16 06:36:00,
2013-05-16 01:40:00,61.4,46.5,29.81,South,180,3.8,3.8,58,0.00,,,0.00,WUHU216HW,2013-05-16 06:40:00,
2013-05-16 02:00:00,58.9,45.8,29.82,NE,45,1.1,1.1,62,0.00,,,0.00,WUHU216HW,2013-05-16 07:00:00,
2013-05-16 02:05:00,59.0,46.0,29.82,NNE,23,1.1,1.1,62,0.00,,,0.00,WUHU216HW,2013-05-16 07:05:00,
2013-05-16 02:30:00,56.3,45.1,29.82,NE,45,0.0,0.0,66,0.00,,,0.00,WUHU216HW,2013-05-16 07:30:00,
2013-05-16 02:35:00,56.3,45.1,29.82,NE,45,0.0,0.0,66,0.00,,,0.00,WUHU216HW,2013-05-16 07:35:00,
2013-05-16 02:36:00,56.3,45.1,29.82,NE,45,0.0,0.0,66,0.00,,,0.00,WUHU216HW,2013-05-16 07:36:00,
2013-05-16 02:40:00,56.3,45.1,29.82,NE,45,0.0,0.0,66,0.00,,,0.00,WUHU216HW,2013-05-16 07:40:00,
2013-05-16 03:00:00,54.5,44.6,29.82,WSW,248,0.4,0.4,69,0.00,,,0.00,WUHU216HW,2013-05-16 08:00:00,
2013-05-16 03:05:00,54.5,44.6,29.82,WSW,248,0.2,0.4,69,0.00,,,0.00,WUHU216HW,2013-05-16 08:05:00,
2013-05-16 03:10:00,54.5,44.6,29.82,WSW,248,0.2,0.4,69,0.00,,,0.00,WUHU216HW,2013-05-16 08:10:00,
2013-05-16 03:30:00,52.9,44.6,29.83,North,0,0.7,0.7,73,0.00,,,0.00,WUHU216HW,2013-05-16 08:30:00,
2013-05-16 03:35:00,52.9,44.6,29.83,North,0,0.7,0.7,73,0.00,,,0.00,WUHU216HW,2013-05-16 08:35:00,
2013-05-16 03:36:00,52.9,44.6,29.83,North,0,0.7,0.7,73,0.00,,,0.00,WUHU216HW,2013-05-16 08:36:00,
2013-05-16 04:00:00,54.2,43.8,29.83,North,0,2.7,2.7,68,0.00,,,0.00,WUHU216HW,2013-05-16 09:00:00,
2013-05-16 04:05:00,54.2,43.8,29.83,North,0,2.5,2.7,68,0.00,,,0.00,WUHU216HW,2013-05-16 09:05:00,
2013-05-16 04:10:00,54.2,43.8,29.83,North,0,2.5,2.5,68,0.00,,,0.00,WUHU216HW,2013-05-16 09:10:00,
2013-05-16 04:30:00,53.8,42.3,29.85,North,0,1.8,1.8,65,0.00,,,0.00,WUHU216HW,2013-05-16 09:30:00,
2013-05-16 04:31:00,53.8,42.3,29.85,North,0,1.6,1.8,65,0.00,,,0.00,WUHU216HW,2013-05-16 09:31:00,
2013-05-16 04:35:00,53.8,42.3,29.85,North,0,1.6,1.8,65,0.00,,,0.00,WUHU216HW,2013-05-16 09:35:00,
2013-05-16 04:36:00,53.8,42.3,29.85,North,0,1.6,1.8,65,0.00,,,0.00,WUHU216HW,2013-05-16 09:36:00,
2013-05-16 04:40:00,53.8,42.3,29.85,North,0,1.6,1.6,65,0.00,,,0.00,WUHU216HW,2013-05-16 09:40:00,
2013-05-16 05:00:00,54.0,40.5,29.85,North,0,2.5,2.5,60,0.00,,,0.00,WUHU216HW,2013-05-16 10:00:00,
2013-05-16 05:01:00,54.0,40.5,29.85,North,0,2.6,2.9,60,0.00,,,0.00,WUHU216HW,2013-05-16 10:01:00,
2013-05-16 05:05:00,54.0,40.5,29.85,North,0,2.2,2.9,60,0.00,,,0.00,WUHU216HW,2013-05-16 10:05:00,
2013-05-16 05:06:00,54.0,40.5,29.85,North,0,2.2,2.9,60,0.00,,,0.00,WUHU216HW,2013-05-16 10:06:00,
2013-05-16 05:10:00,54.0,40.5,29.85,North,0,2.2,2.2,60,0.00,,,0.00,WUHU216HW,2013-05-16 10:10:00,
2013-05-16 05:30:00,54.0,40.0,29.86,North,0,1.1,1.1,59,0.00,,,0.00,WUHU216HW,2013-05-16 10:30:00,
2013-05-16 05:31:00,54.0,40.0,29.86,North,0,0.9,1.1,59,0.00,,,0.00,WUHU216HW,2013-05-16 10:31:00,
2013-05-16 05:35:00,54.0,40.0,29.86,North,0,0.4,1.1,59,0.00,,,0.00,WUHU216HW,2013-05-16 10:35:00,
2013-05-16 05:36:00,54.0,40.0,29.86,North,0,0.4,1.1,59,0.00,,,0.00,WUHU216HW,2013-05-16 10:36:00,
2013-05-16 06:00:00,54.0,39.5,29.87,NNE,23,3.8,3.8,58,0.00,,,0.00,WUHU216HW,2013-05-16 11:00:00,
2013-05-16 06:05:00,54.2,39.7,29.87,North,0,4.7,4.7,58,0.00,,,0.00,WUHU216HW,2013-05-16 11:05:00,
2013-05-16 06:06:00,54.2,39.7,29.87,North,0,4.7,4.7,58,0.00,,,0.00,WUHU216HW,2013-05-16 11:06:00,
2013-05-16 06:30:00,55.6,40.5,29.88,NNE,23,3.4,3.4,57,0.00,,,0.00,WUHU216HW,2013-05-16 11:30:00,
2013-05-16 06:31:00,55.6,40.5,29.88,NNE,23,2.2,3.4,57,0.00,,,0.00,WUHU216HW,2013-05-16 11:31:00,
2013-05-16 06:35:00,55.6,40.5,29.88,NNE,23,1.6,3.4,57,0.00,,,0.00,WUHU216HW,2013-05-16 11:35:00,
2013-05-16 06:36:00,55.6,40.5,29.88,NNE,23,1.6,3.4,57,0.00,,,0.00,WUHU216HW,2013-05-16 11:36:00,
2013-05-16 07:00:00,58.0,41.9,29.89,NNE,23,4.0,4.0,55,0.00,,,0.00,WUHU216HW,2013-05-16 12:00:00,
2013-05-16 07:05:00,58.1,42.0,29.89,North,0,4.7,4.7,55,0.00,,,0.00,WUHU216HW,2013-05-16 12:05:00,
2013-05-16 07:10:00,58.1,42.0,29.89,North,0,4.7,4.7,55,0.00,,,0.00,WUHU216HW,2013-05-16 12:10:00,
2013-05-16 07:30:00,62.1,42.1,29.90,NNE,23,8.9,8.9,48,0.00,,,0.00,WUHU216HW,2013-05-16 12:30:00,
2013-05-16 07:35:00,62.3,41.7,29.90,NE,45,7.8,11.0,47,0.00,,,0.00,WUHU216HW,2013-05-16 12:35:00,
2013-05-16 07:36:00,62.3,41.7,29.90,NE,45,7.8,11.0,47,0.00,,,0.00,WUHU216HW,2013-05-16 12:36:00,
2013-05-16 07:40:00,62.3,41.7,29.90,NE,45,7.8,7.8,47,0.00,,,0.00,WUHU216HW,2013-05-16 12:40:00,
2013-05-16 08:00:00,65.3,41.6,29.90,ENE,68,6.3,6.3,42,0.00,,,0.00,WUHU216HW,2013-05-16 13:00:00,
2013-05-16 08:05:00,65.5,41.8,29.90,East,90,4.7,6.3,42,0.00,,,0.00,WUHU216HW,2013-05-16 13:05:00,
2013-05-16 08:30:00,69.5,42.7,29.91,ENE,68,2.5,2.5,38,0.00,,,0.00,WUHU216HW,2013-05-16 13:30:00,
2013-05-16 08:31:00,69.5,42.7,29.91,NE,45,4.9,4.9,38,0.00,,,0.00,WUHU216HW,2013-05-16 13:31:00,
2013-05-16 08:35:00,69.5,42.7,29.91,NE,45,4.9,4.9,38,0.00,,,0.00,WUHU216HW,2013-05-16 13:35:00,
2013-05-16 08:36:00,69.5,42.7,29.91,NE,45,4.9,4.9,38,0.00,,,0.00,WUHU216HW,2013-05-16 13:36:00,
2013-05-16 09:00:00,71.3,42.9,29.92,ENE,68,2.5,2.5,36,0.00,,,0.00,WUHU216HW,2013-05-16 14:00:00,
2013-05-16 09:05:00,71.5,42.9,29.92,ENE,68,2.5,2.5,36,0.00,,,0.00,WUHU216HW,2013-05-16 14:05:00,
2013-05-16 09:30:00,71.6,42.4,29.92,NE,45,6.9,6.9,35,0.00,,,0.00,WUHU216HW,2013-05-16 14:30:00,
2013-05-16 09:31:00,71.6,42.4,29.92,ENE,69,5.0,6.9,35,0.00,,,0.00,WUHU216HW,2013-05-16 14:31:00,
2013-05-16 09:35:00,71.6,42.4,29.92,East,90,4.0,6.9,35,0.00,,,0.00,WUHU216HW,2013-05-16 14:35:00,
2013-05-16 09:36:00,71.6,42.4,29.92,East,90,4.0,6.9,35,0.00,,,0.00,WUHU216HW,2013-05-16 14:36:00,
2013-05-16 10:00:00,74.0,42.9,29.93,NNE,23,7.8,7.8,33,0.00,,,0.00,WUHU216HW,2013-05-16 15:00:00,
2013-05-16 10:05:00,73.8,43.5,29.93,NE,45,6.3,7.8,34,0.00,,,0.00,WUHU216HW,2013-05-16 15:05:00,
2013-05-16 10:30:00,76.7,43.8,29.93,NNE,23,5.4,5.4,31,0.00,,,0.00,WUHU216HW,2013-05-16 15:30:00,
2013-05-16 10:35:00,76.7,43.8,29.93,NNE,23,3.4,5.4,31,0.00,,,0.00,WUHU216HW,2013-05-16 15:35:00,
2013-05-16 10:36:00,76.7,43.8,29.93,NNE,23,3.4,5.4,31,0.00,,,0.00,WUHU216HW,2013-05-16 15:36:00,
2013-05-16 10:40:00,76.7,43.8,29.93,NNE,23,3.4,3.4,31,0.00,,,0.00,WUHU216HW,2013-05-16 15:40:00,
2013-05-16 11:00:00,77.9,43.0,29.92,NE,45,3.4,3.4,29,0.00,,,0.00,WUHU216HW,2013-05-16 16:00:00,
2013-05-16 11:05:00,77.9,43.0,29.92,NNE,23,7.6,7.6,29,0.00,,,0.00,WUHU216HW,2013-05-16 16:05:00,
2013-05-16 11:06:00,77.9,43.0,29.92,NNE,23,7.6,7.6,29,0.00,,,0.00,WUHU216HW,2013-05-16 16:06:00,
2013-05-16 11:30:00,80.3,40.9,29.92,South,180,8.3,8.3,25,0.00,,,0.00,WUHU216HW,2013-05-16 16:30:00,
2013-05-16 11:31:00,80.3,40.9,29.92,South,169,5.6,8.3,25,0.00,,,0.00,WUHU216HW,2013-05-16 16:31:00,
2013-05-16 11:35:00,80.3,40.9,29.92,SSE,158,4.3,8.3,25,0.00,,,0.00,WUHU216HW,2013-05-16 16:35:00,
2013-05-16 11:36:00,80.3,40.9,29.92,SSE,158,4.3,8.3,25,0.00,,,0.00,WUHU216HW,2013-05-16 16:36:00,
2013-05-16 11:37:00,80.3,40.9,29.92,SSE,158,4.3,8.3,25,0.00,,,0.00,WUHU216HW,2013-05-16 16:37:00,
2013-05-16 12:00:00,81.2,39.6,29.91,ESE,113,9.4,9.4,23,0.00,,,0.00,WUHU216HW,2013-05-16 17:00:00,
2013-05-16 12:05:00,80.8,39.2,29.91,ESE,113,9.2,9.4,23,0.00,,,0.00,WUHU216HW,2013-05-16 17:05:00,
2013-05-16 12:10:00,80.8,39.2,29.91,ESE,113,9.2,9.2,23,0.00,,,0.00,WUHU216HW,2013-05-16 17:10:00,
2013-05-16 12:30:00,80.3,38.8,29.91,ENE,68,4.0,4.0,23,0.00,,,0.00,WUHU216HW,2013-05-16 17:30:00,
2013-05-16 12:31:00,80.3,38.8,29.91,SSE,158,5.8,5.8,23,0.00,,,0.00,WUHU216HW,2013-05-16 17:31:00,
2013-05-16 12:35:00,80.3,38.8,29.91,SSE,158,5.8,5.8,23,0.00,,,0.00,WUHU216HW,2013-05-16 17:35:00,
2013-05-16 12:36:00,80.3,38.8,29.91,SSE,158,5.8,5.8,23,0.00,,,0.00,WUHU216HW,2013-05-16 17:36:00,
2013-05-16 13:00:00,80.3,38.8,29.90,East,90,2.5,2.5,23,0.00,,,0.00,WUHU216HW,2013-05-16 18:00:00,
2013-05-16 13:05:00,80.5,37.9,29.90,NNE,23,5.6,5.6,22,0.00,,,0.00,WUHU216HW,2013-05-16 18:05:00,
2013-05-16 13:10:00,80.5,37.9,29.90,NNE,23,5.6,5.6,22,0.00,,,0.00,WUHU216HW,2013-05-16 18:10:00,
2013-05-16 13:30:00,83.5,39.3,29.89,East,90,4.5,4.5,21,0.00,,,0.00,WUHU216HW,2013-05-16 18:30:00,
2013-05-16 13:31:00,83.5,39.3,29.89,East,85,3.8,4.5,21,0.00,,,0.00,WUHU216HW,2013-05-16 18:31:00,
2013-05-16 13:35:00,83.5,39.3,29.89,ENE,68,2.5,4.5,21,0.00,,,0.00,WUHU216HW,2013-05-16 18:35:00,
2013-05-16 13:36:00,83.5,39.3,29.89,ENE,68,2.5,4.5,21,0.00,,,0.00,WUHU216HW,2013-05-16 18:36:00,
2013-05-16 14:00:00,84.2,40.0,29.89,East,90,4.5,4.5,21,0.00,,,0.00,WUHU216HW,2013-05-16 19:00:00,
2013-05-16 14:05:00,84.4,37.4,29.89,ESE,113,3.1,4.9,19,0.00,,,0.00,WUHU216HW,2013-05-16 19:05:00,
2013-05-16 14:30:00,83.5,38.4,29.89,NE,45,4.0,4.0,20,0.00,,,0.00,WUHU216HW,2013-05-16 19:30:00,
2013-05-16 14:31:00,83.5,36.6,29.89,ESE,113,4.0,4.0,19,0.00,,,0.00,WUHU216HW,2013-05-16 19:31:00,
2013-05-16 14:35:00,83.5,36.6,29.89,ESE,113,4.0,4.0,19,0.00,,,0.00,WUHU216HW,2013-05-16 19:35:00,
2013-05-16 14:36:00,83.5,36.6,29.89,ESE,113,4.0,4.0,19,0.00,,,0.00,WUHU216HW,2013-05-16 19:36:00,
2013-05-16 14:40:00,83.5,36.6,29.89,ESE,113,4.0,4.0,19,0.00,,,0.00,WUHU216HW,2013-05-16 19:40:00,
2013-05-16 15:00:00,84.6,35.7,29.89,North,0,4.3,4.3,18,0.00,,,0.00,WUHU216HW,2013-05-16 20:00:00,
2013-05-16 15:05:00,84.4,35.7,29.89,NE,45,5.8,5.8,18,0.00,,,0.00,WUHU216HW,2013-05-16 20:05:00,
2013-05-16 15:10:00,84.4,35.7,29.89,NE,45,5.8,5.8,18,0.00,,,0.00,WUHU216HW,2013-05-16 20:10:00,
2013-05-16 15:30:00,81.9,38.1,29.87,North,0,4.9,4.9,21,0.00,,,0.00,WUHU216HW,2013-05-16 20:30:00,
2013-05-16 15:31:00,82.1,38.2,29.87,ESE,113,6.3,6.3,21,0.00,,,0.00,WUHU216HW,2013-05-16 20:31:00,
2013-05-16 15:35:00,82.1,38.2,29.87,ESE,113,6.3,6.3,21,0.00,,,0.00,WUHU216HW,2013-05-16 20:35:00,
2013-05-16 15:36:00,82.1,38.2,29.87,ESE,113,6.3,6.3,21,0.00,,,0.00,WUHU216HW,2013-05-16 20:36:00,
2013-05-16 16:00:00,81.9,38.1,29.88,ENE,68,5.1,5.1,21,0.00,,,0.00,WUHU216HW,2013-05-16 21:00:00,
2013-05-16 16:05:00,82.1,38.2,29.88,ENE,68,4.9,5.1,21,0.00,,,0.00,WUHU216HW,2013-05-16 21:05:00,
2013-05-16 16:30:00,82.6,35.9,29.88,NE,45,4.3,4.3,19,0.00,,,0.00,WUHU216HW,2013-05-16 21:30:00,
2013-05-16 16:35:00,82.6,35.9,29.88,South,180,2.9,4.3,19,0.00,,,0.00,WUHU216HW,2013-05-16 21:35:00,
2013-05-16 16:36:00,82.6,35.9,29.88,South,180,2.9,4.3,19,0.00,,,0.00,WUHU216HW,2013-05-16 21:36:00,
2013-05-16 17:00:00,80.3,36.7,29.88,NE,45,7.8,7.8,21,0.00,,,0.00,WUHU216HW,2013-05-16 22:00:00,
2013-05-16 17:05:00,80.5,37.9,29.88,NNE,23,8.5,8.5,22,0.00,,,0.00,WUHU216HW,2013-05-16 22:05:00,
2013-05-16 17:06:00,80.5,37.9,29.88,NNE,23,8.5,8.5,22,0.00,,,0.00,WUHU216HW,2013-05-16 22:06:00,
2013-05-16 17:10:00,80.5,37.9,29.88,NNE,23,8.5,8.5,22,0.00,,,0.00,WUHU216HW,2013-05-16 22:10:00,
2013-05-16 17:30:00,79.9,36.4,29.88,North,0,12.1,12.1,21,0.00,,,0.00,WUHU216HW,2013-05-16 22:30:00,
2013-05-16 17:31:00,79.9,37.4,29.88,North,354,11.2,12.1,22,0.00,,,0.00,WUHU216HW,2013-05-16 22:31:00,
2013-05-16 17:35:00,79.9,37.4,29.88,NNW,338,9.4,12.1,22,0.00,,,0.00,WUHU216HW,2013-05-16 22:35:00,
2013-05-16 17:36:00,79.9,37.4,29.88,NNW,338,9.4,12.1,22,0.00,,,0.00,WUHU216HW,2013-05-16 22:36:00,
2013-05-16 18:00:00,80.6,36.0,29.88,NNE,23,6.3,6.3,20,0.00,,,0.00,WUHU216HW,2013-05-16 23:00:00,
2013-05-16 18:05:00,80.6,34.3,29.88,NNE,23,10.7,10.7,19,0.00,,,0.00,WUHU216HW,2013-05-16 23:05:00,
2013-05-16 18:10:00,80.6,34.3,29.88,NNE,23,10.7,10.7,19,0.00,,,0.00,WUHU216HW,2013-05-16 23:10:00,
2013-05-16 18:30:00,78.5,35.1,29.88,NNE,23,10.5,10.5,21,0.00,,,0.00,WUHU216HW,2013-05-16 23:30:00,
2013-05-16 18:35:00,78.7,35.3,29.88,ENE,68,6.9,10.5,21,0.00,,,0.00,WUHU216HW,2013-05-16 23:35:00,
2013-05-16 18:36:00,78.7,35.3,29.88,ENE,68,6.9,10.5,21,0.00,,,0.00,WUHU216HW,2013-05-16 23:36:00,
2013-05-16 19:00:00,76.7,36.8,29.88,NNE,23,9.6,9.6,24,0.00,,,0.00,WUHU216HW,2013-05-17 00:00:00,
2013-05-16 19:05:00,76.7,36.8,29.87,North,0,9.4,9.6,24,0.00,,,0.00,WUHU216HW,2013-05-17 00:05:00,
2013-05-16 19:06:00,76.7,36.8,29.87,North,0,9.4,9.6,24,0.00,,,0.00,WUHU216HW,2013-05-17 00:06:00,
2013-05-16 19:10:00,76.7,36.8,29.87,North,0,9.4,9.4,24,0.00,,,0.00,WUHU216HW,2013-05-17 00:10:00,
2013-05-16 19:30:00,75.8,36.1,29.88,NNE,23,14.5,14.5,24,0.00,,,0.00,WUHU216HW,2013-05-17 00:30:00,
2013-05-16 19:35:00,75.8,36.1,29.88,NE,45,10.7,14.5,24,0.00,,,0.00,WUHU216HW,2013-05-17 00:35:00,
2013-05-16 20:00:00,74.2,35.7,29.89,SW,225,7.6,7.6,25,0.00,,,0.00,WUHU216HW,2013-05-17 01:00:00,
2013-05-16 20:05:00,74.0,35.6,29.89,WSW,248,6.0,7.6,25,0.00,,,0.00,WUHU216HW,2013-05-17 01:05:00,
2013-05-16 20:30:00,72.5,34.4,29.90,ESE,113,7.8,7.8,25,0.00,,,0.00,WUHU216HW,2013-05-17 01:30:00,
2013-05-16 20:35:00,72.5,34.4,29.90,NE,45,7.4,7.8,25,0.00,,,0.00,WUHU216HW,2013-05-17 01:35:00,
2013-05-16 20:36:00,72.5,34.4,29.90,NE,45,7.4,7.8,25,0.00,,,0.00,WUHU216HW,2013-05-17 01:36:00,
2013-05-16 20:40:00,72.5,34.4,29.90,NE,45,7.4,7.4,25,0.00,,,0.00,WUHU216HW,2013-05-17 01:40:00,
2013-05-16 21:00:00,70.9,34.0,29.91,NE,45,4.9,4.9,26,0.00,,,0.00,WUHU216HW,2013-05-17 02:00:00,
2013-05-16 21:05:00,70.9,34.0,29.91,ENE,68,4.3,4.9,26,0.00,,,0.00,WUHU216HW,2013-05-17 02:05:00,
2013-05-16 21:06:00,70.9,34.0,29.91,ENE,68,4.3,4.9,26,0.00,,,0.00,WUHU216HW,2013-05-17 02:06:00,
2013-05-16 21:10:00,70.9,34.0,29.91,ENE,68,4.3,4.9,26,0.00,,,0.00,WUHU216HW,2013-05-17 02:10:00,
2013-05-16 21:30:00,69.7,32.9,29.91,NNW,338,6.9,6.9,26,0.00,,,0.00,WUHU216HW,2013-05-17 02:30:00,
2013-05-16 21:31:00,69.5,32.8,29.91,NNE,12,6.9,7.6,26,0.00,,,0.00,WUHU216HW,2013-05-17 02:31:00,
2013-05-16 21:35:00,69.5,32.8,29.91,NNW,338,6.3,7.6,26,0.00,,,0.00,WUHU216HW,2013-05-17 02:35:00,
2013-05-16 21:36:00,69.5,32.8,29.91,NNW,338,6.3,7.6,26,0.00,,,0.00,WUHU216HW,2013-05-17 02:36:00,
2013-05-16 22:00:00,68.6,32.9,29.91,SSW,203,4.3,4.3,27,0.00,,,0.00,WUHU216HW,2013-05-17 03:00:00,
2013-05-16 22:05:00,68.6,33.9,29.91,SE,135,5.6,5.6,28,0.00,,,0.00,WUHU216HW,2013-05-17 03:05:00,
2013-05-16 22:10:00,68.6,33.9,29.91,SE,135,5.6,5.6,28,0.00,,,0.00,WUHU216HW,2013-05-17 03:10:00,
2013-05-16 22:30:00,67.9,31.3,29.91,East,90,4.0,4.0,26,0.00,,,0.00,WUHU216HW,2013-05-17 03:30:00,
2013-05-16 22:31:00,67.9,31.3,29.91,NE,45,4.0,4.0,26,0.00,,,0.00,WUHU216HW,2013-05-17 03:31:00,
2013-05-16 22:35:00,67.9,31.3,29.91,NE,45,4.0,4.0,26,0.00,,,0.00,WUHU216HW,2013-05-17 03:35:00,
2013-05-16 22:36:00,67.9,31.3,29.91,NE,45,4.0,4.0,26,0.00,,,0.00,WUHU216HW,2013-05-17 03:36:00,
2013-05-16 22:40:00,67.9,31.3,29.91,NE,45,4.0,4.0,26,0.00,,,0.00,WUHU216HW,2013-05-17 03:40:00,
2013-05-16 23:00:00,67.1,30.8,29.92,SSE,158,4.7,4.7,26,0.00,,,0.00,WUHU216HW,2013-05-17 04:00:00,
2013-05-16 23:01:00,67.1,30.8,29.92,ESE,115,4.1,4.7,26,0.00,,,0.00,WUHU216HW,2013-05-17 04:01:00,
2013-05-16 23:06:00,67.1,30.8,29.92,NE,45,3.4,4.7,26,0.00,,,0.00,WUHU216HW,2013-05-17 04:06:00,
2013-05-16 23:30:00,66.4,31.1,29.92,WNW,293,2.2,2.2,27,0.00,,,0.00,WUHU216HW,2013-05-17 04:30:00,
2013-05-16 23:31:00,66.4,32.1,29.92,NNE,23,5.1,5.1,28,0.00,,,0.00,WUHU216HW,2013-05-17 04:31:00,
2013-05-16 23:35:00,66.4,32.1,29.92,NNE,23,5.1,5.1,28,0.00,,,0.00,WUHU216HW,2013-05-17 04:35:00,
2013-05-16 23:36:00,66.4,32.1,29.92,NNE,23,5.1,5.1,28,0.00,,,0.00,WUHU216HW,2013-05-17 04:36:00,
2013-05-16 23:40:00,66.4,32.1,29.92,NNE,23,5.1,5.1,28,0.00,,,0.00,WUHU216HW,2013-05-17 04:40:00,